GFSFLT2_sfc_rhum_339.txt.gz
RH
87 79 64 57 55 49 55 55 54 54 56 56 55 57 56 55 54 56 55 56 55 55 55 54 54 52 53 53 49 46 46 46
93 89 80 73 68 52 57 55 54 53 54 55 58 64 59 59 57 55 55 56 56 55 54 54 54 54 54 52 49 49 49 48
93 91 86 78 65 56 60 55 56 58 59 55 67 71 72 70 56 54 55 55 56 55 54 54 53 56 56 54 54 44 48 45
83 71 72 74 41 61 66 56 67 67 66 66 69 72 67 62 58 56 58 56 58 56 57 57 56 54 55 55 52 49 47 46
67 65 60 56 57 61 68 72 74 72 67 67 70 69 76 77 75 71 70 63 67 63 65 60 60 58 54 53 53 52 54 50
66 64 62 63 62 62 66 68 70 74 70 67 72 76 76 80 78 74 70 75 75 74 74 64 62 57 54 55 56 56 53 53
66 64 64 62 57 61 66 72 70 71 72 68 72 74 77 80 78 76 73 76 79 74 72 66 64 60 56 58 59 55 56 56
65 64 63 63 59 57 65 70 72 70 73 70 68 75 77 78 78 76 76 79 80 79 75 76 68 61 62 62 61 58 55 54
62 65 63 60 60 60 65 69 68 69 70 68 68 73 74 76 79 78 80 81 81 77 72 72 66 62 67 68 65 63 56 55
59 49 58 62 64 66 62 66 73 71 71 70 63 69 68 72 76 79 80 81 84 82 77 67 66 67 70 75 74 70 60 56
60 61 61 61 60 68 69 64 69 70 72 67 60 66 66 72 76 79 78 82 87 83 81 85 70 69 63 68 78 75 65 57
54 57 56 54 57 57 61 66 70 68 69 66 62 70 68 72 78 80 78 83 87 85 86 82 84 82 66 70 85 76 63 77
53 53 57 56 58 57 57 65 60 65 66 65 67 68 68 75 81 79 77 84 90 81 84 86 88 86 86 80 88 80 66 70
54 54 55 57 60 63 59 59 59 62 65 69 74 74 77 71 82 78 78 86 88 87 90 92 89 94 96 93 85 77 70 68
54 56 56 57 57 58 59 59 62 65 66 70 75 74 75 74 76 80 84 91 93 92 93 94 99 94 94 93 89 89 81 79
57 55 54 53 57 61 62 67 68 66 70 70 78 73 73 73 75 81 91 92 91 92 85 95 97 99 97 83 94 96 98 91
61 56 54 56 59 60 69 70 67 67 69 71 72 76 72 72 78 88 92 93 90 92 94 97 98 98 97 98 97 98 98 96
63 58 58 58 58 61 62 61 60 65 69 71 74 77 79 77 76 90 90 88 92 92 90 93 97 98 98 98 97 95 97 96
62 59 63 61 62 58 56 57 62 62 67 70 72 77 78 80 85 87 88 88 91 86 87 92 97 99 97 99 99 99 98 99
60 60 62 59 58 54 56 57 65 65 67 68 70 75 78 80 85 83 81 86 89 85 90 96 96 98 97 97 98 99 97 99

GFSFLT2_sfc_rhum_342.txt.gz
RH
87 74 61 56 54 60 57 56 55 57 55 57 60 58 60 59 57 58 58 58 58 58 58 58 56 57 57 55 55 52 45 46
93 88 77 75 72 61 57 57 55 53 54 59 65 65 61 58 57 57 57 58 58 58 59 58 57 58 56 55 55 56 48 48
95 93 86 74 68 63 61 56 57 58 60 61 71 77 71 66 55 57 58 58 58 59 59 58 58 60 58 59 59 53 52 50
94 92 89 60 50 67 66 58 68 68 66 68 71 77 67 61 60 60 60 63 61 62 61 60 60 58 59 61 57 57 55 54
68 71 78 57 62 69 71 72 74 71 67 69 71 71 77 77 76 73 74 68 66 66 68 60 65 61 58 58 59 60 60 58
64 64 60 62 67 68 70 69 72 73 70 70 73 78 78 78 76 75 75 78 75 76 76 66 64 60 59 61 62 61 60 60
67 65 66 62 60 68 71 71 71 73 72 71 73 75 78 77 75 76 77 79 81 75 74 71 65 61 60 63 64 61 60 60
71 68 67 59 60 64 70 70 73 73 73 71 71 76 77 77 76 77 79 81 81 78 76 74 71 64 62 65 65 62 59 56
69 67 65 60 58 63 69 72 69 71 71 69 71 73 73 76 77 79 81 83 79 78 72 70 65 60 64 67 66 65 60 54
62 51 63 65 65 65 67 74 74 72 72 72 69 72 71 77 78 81 80 82 81 80 76 72 67 68 69 68 72 66 63 56
66 62 63 62 70 73 70 72 72 72 73 72 70 73 71 79 80 82 80 83 84 80 77 79 78 75 68 65 74 69 66 57
60 61 56 55 62 64 69 73 72 73 74 72 70 75 74 80 82 80 78 83 84 81 78 77 79 84 72 67 78 74 61 66
55 55 58 57 59 57 64 65 69 69 70 74 75 77 78 81 80 78 80 86 86 82 83 80 82 86 81 72 73 70 67 55
55 54 55 55 56 64 63 66 69 68 74 78 77 76 76 70 80 80 84 86 86 87 87 90 85 86 91 82 74 64 62 61
54 55 51 52 59 62 64 64 67 65 69 76 79 75 75 76 77 84 89 89 89 88 91 91 96 88 89 87 84 78 79 68
54 51 48 51 61 64 63 67 67 69 72 80 78 73 75 76 80 87 89 89 87 91 79 91 95 94 77 80 90 93 93 83
60 48 51 58 61 64 68 66 66 71 76 74 73 78 75 75 83 87 87 88 89 86 82 86 92 93 92 85 87 90 90 92
50 51 57 58 60 61 59 58 63 68 69 73 74 77 79 77 79 85 83 85 91 85 82 85 91 95 93 94 95 95 88 92
53 59 61 62 61 62 56 60 62 65 69 68 68 75 75 76 83 83 82 86 88 82 82 86 94 98 97 96 93 90 94 91
62 56 62 59 59 54 55 60 66 69 66 66 69 72 77 75 80 81 79 84 87 82 86 92 94 98 96 95 91 87 94 94

GFSFLT2_sfc_rhum_348.txt.gz
RH
53 50 57 63 60 57 56 56 58 58 57 58 56 55 56 56 57 61 60 60 61 59 58 55 54 54 56 58 58 55 28 16
47 47 44 50 49 57 56 55 57 57 56 56 47 45 44 52 49 58 59 58 59 59 57 55 52 46 50 57 57 49 18 18
41 38 43 47 44 47 50 53 50 44 46 48 35 32 31 33 53 56 57 56 55 55 54 50 44 30 34 46 48 20 21 19
34 38 40 45 30 37 38 34 34 36 37 38 30 41 38 31 38 45 43 50 39 43 41 37 31 20 19 27 22 28 21 23
34 44 46 38 32 28 25 27 31 35 43 39 41 34 34 28 28 26 29 33 26 26 23 22 30 26 24 26 29 28 23 23
36 38 45 41 30 26 30 29 30 29 36 40 37 31 35 35 30 29 30 26 31 27 23 29 29 28 30 31 33 30 26 25
35 40 43 42 39 33 34 34 30 33 32 41 35 33 38 34 34 30 30 29 28 27 26 25 25 25 26 29 31 32 34 28
40 35 42 38 39 43 38 36 38 32 33 39 42 38 42 34 34 32 31 31 30 27 28 26 24 24 24 28 31 31 31 34
40 40 43 42 43 40 36 33 31 32 33 45 45 44 44 46 36 35 35 35 35 30 29 26 23 21 24 24 25 29 29 34
36 31 40 44 45 38 33 35 35 32 32 36 46 46 47 43 36 37 41 34 32 32 30 28 26 25 26 24 24 27 31 34
36 41 40 43 46 38 42 49 35 33 34 35 47 45 47 43 35 38 43 33 34 34 33 35 34 32 31 28 28 27 29 25
38 38 46 46 45 45 38 35 33 33 34 37 46 41 45 41 33 38 37 33 34 37 43 38 37 37 32 29 30 29 30 31
37 40 44 36 32 34 32 32 32 34 33 43 42 43 42 38 32 34 37 35 42 45 42 43 36 38 37 33 29 29 36 31
37 36 37 32 28 37 36 33 33 33 34 40 40 42 42 35 42 37 41 38 44 46 46 42 36 38 41 41 34 28 28 29
34 36 36 39 45 40 38 38 32 28 28 28 35 40 41 45 44 42 44 43 41 45 45 49 47 39 45 58 61 40 43 31
36 37 38 45 57 46 41 31 30 31 29 29 29 39 41 41 46 46 47 44 46 45 42 48 48 47 44 42 52 64 72 52
39 44 48 58 47 43 32 34 28 29 29 36 35 35 39 41 46 49 48 44 47 50 50 51 47 54 60 64 56 49 50 76
46 47 56 46 42 40 41 41 36 34 36 32 31 31 33 39 44 46 48 48 47 44 47 52 53 58 63 65 74 81 72 76
45 48 50 42 40 39 38 38 42 36 35 31 35 33 34 40 45 48 45 48 47 45 45 53 58 74 77 77 68 65 71 65
43 44 42 39 39 38 37 39 31 30 34 36 34 35 36 43 45 46 48 47 45 44 44 60 66 80 78 78 77 70 67 75

GFSFLT2_sfc_rhum_354.txt.gz
RH
68 63 62 62 61 60 59 58 57 54 50 49 47 49 51 51 51 53 55 54 54 52 51 51 49 46 45 43 46 51 52 46
64 64 55 60 59 60 59 56 54 51 48 43 41 40 39 47 42 46 48 47 47 46 46 44 44 41 35 39 40 43 33 27
55 52 53 55 53 52 54 53 52 52 49 43 46 50 46 39 49 43 44 45 47 40 37 41 36 35 34 35 36 32 32 31
45 50 50 53 34 56 55 46 50 54 54 58 51 55 53 39 40 46 46 44 36 37 36 33 34 36 34 35 33 36 32 35
37 58 59 45 43 44 43 45 52 55 61 61 57 54 59 48 52 44 49 35 38 36 34 36 42 43 40 42 41 37 34 35
36 42 60 56 39 43 48 45 51 50 57 62 57 53 56 54 53 51 47 42 47 44 37 46 45 40 38 40 40 41 37 42
40 47 57 55 55 55 56 56 53 53 54 58 60 59 61 58 55 53 50 44 43 45 44 38 39 36 37 36 35 38 41 43
48 44 57 51 58 64 60 58 58 55 58 66 60 64 67 56 54 53 52 48 46 46 46 42 38 38 36 38 38 39 36 40
50 53 57 60 60 55 54 57 56 60 70 67 60 62 65 65 54 58 55 52 54 50 46 44 42 37 38 40 41 36 37 38
43 37 51 61 60 58 52 57 67 66 55 56 60 59 62 61 54 58 61 54 52 52 52 50 49 44 44 45 38 36 40 42
42 53 52 57 62 57 61 66 68 59 59 56 62 57 55 60 53 58 62 56 58 57 57 59 54 49 41 40 41 43 37 32
45 51 58 59 56 56 56 64 69 61 55 53 57 54 56 59 55 61 58 53 56 63 66 62 59 54 41 42 48 42 41 50
46 50 53 48 51 54 70 90 66 52 49 51 51 56 56 59 53 54 56 57 63 61 63 61 56 57 55 52 47 44 45 42
47 46 45 46 52 65 82 66 54 50 49 48 50 55 57 47 61 56 60 59 63 65 67 64 58 58 62 62 66 53 53 46
45 44 51 54 54 52 56 56 56 48 41 42 45 48 51 58 59 62 64 65 63 65 64 66 64 63 67 75 90 80 73 59
47 49 46 47 53 53 58 47 40 44 43 44 45 48 49 50 58 62 66 65 66 64 54 67 64 70 74 63 72 76 90 89
52 48 46 50 51 58 49 53 47 44 49 54 54 52 52 50 59 65 67 65 68 69 68 67 68 78 88 92 79 68 69 89
50 51 48 52 54 55 57 59 56 51 52 51 49 52 53 58 55 65 66 68 67 68 67 66 76 74 84 80 88 94 92 92
49 50 53 53 54 52 53 55 56 52 51 50 54 51 53 60 64 65 62 65 66 68 69 68 75 87 81 86 85 87 87 87
54 51 50 45 47 49 52 51 47 46 51 53 54 54 56 64 62 64 64 63 64 69 69 73 74 82 80 82 87 84 86 91